Hourly Data Report for October 22, 2016

All times are specified in Local Standard Time (LST). Add 1 hour to adjust for Daylight Saving Time where and when it is observed.

BAKER LAKE A
NUNAVUT

64°17'56.000" N
96°04'40.000" W
18.60 m
2300503
71926
YBK

Download Data

Hourly Data (October 2016)
Hourly Data Report for October 22, 2016
Temp Definition
°C
Dew Point Temp Definition
°C
Rel Hum Definition
%
Wind Dir Definition
10's deg

Wind Spd Definition
km/h
Visibility Definition
km
Stn Press Definition
kPa
Hmdx Definition


Wind Chill Definition


Weather Definition


TIME
00:00 Legend Double Dagger -5.8 -7.6 87 7 40 16.1 101.45   -15 Snow,Blowing Snow
01:00 Legend Double Dagger -5.4 -7.1 88 7 43 16.1 101.45   -15 Snow,Blowing Snow
02:00 Legend Double Dagger -4.9 -6.4 89 8 43 16.1 101.44   -14 Snow,Blowing Snow
03:00 Legend Double Dagger -4.9 -6.6 88 7 41 16.1 101.46   -14 Snow,Blowing Snow
04:00 Legend Double Dagger -4.8 -6.2 90 8 44 6.4 101.50   -14 Snow,Blowing Snow
05:00 Legend Double Dagger -4.7 -6.1 90 8 44 8.1 101.53   -14 Snow,Blowing Snow
06:00 Legend Double Dagger -4.6 -6.0 90 8 44 11.3 101.55   -14 Snow,Blowing Snow
07:00 Legend Double Dagger -4.6 -6.1 89 8 44 8.1 101.63   -14 Snow,Blowing Snow
08:00 Legend Double Dagger -4.7 -6.1 90 8 46 6.4 101.66   -14 Snow,Blowing Snow
09:00 Legend Double Dagger -4.0 -5.3 91 8 38 4.0 101.69   -13 Snow,Blowing Snow
10:00 Legend Double Dagger -3.2 -4.5 91 8 44 4.0 101.74   -12 Snow,Blowing Snow
11:00 Legend Double Dagger -2.8 -4.1 91 8 44 3.2 101.77   -11 Snow,Blowing Snow
12:00 Legend Double Dagger -2.8 -3.9 92 9 44 3.2 101.82   -11 Snow,Blowing Snow
13:00 Legend Double Dagger -2.8 -4.2 90 9 47 8.1 101.87   -12 Snow,Blowing Snow
14:00 Legend Double Dagger -3.2 -4.6 90 8 43 6.4 101.94   -12 Snow,Blowing Snow
15:00 Legend Double Dagger -3.6 -5.0 90 8 44 8.1 102.00   -13 Snow,Blowing Snow
16:00 Legend Double Dagger -4.1 -5.5 90 8 36 12.9 102.08   -12 Snow,Blowing Snow
17:00 Legend Double Dagger -4.1 -5.7 89 8 37 4.8 102.15   -13 Snow,Blowing Snow
18:00 Legend Double Dagger -4.4 -6.0 89 8 42 4.8 102.16   -13 Snow,Blowing Snow
19:00 Legend Double Dagger -4.6 -6.1 89 8 44 6.4 102.20   -14 Snow,Blowing Snow
20:00 Legend Double Dagger -4.7 -6.2 89 7 41 16.1 102.23   -14 Snow,Blowing Snow
21:00 Legend Double Dagger -4.7 -6.2 89 7 37 16.1 102.28   -13 Snow,Blowing Snow
22:00 Legend Double Dagger -4.6 -6.1 89 7 37 24.1 102.31   -13 Snow,Blowing Snow
23:00 Legend Double Dagger -4.6 -6.3 88 8 35 24.1 102.34   -13 Snow,Blowing Snow

Notes on Data Quality.

Legend

  • E = Estimated
  • M = Missing
  • NA = Not Available
  • ‡ = Partner data that is not subject to review by the National Climate Archives
Date modified: